Other Public Products
Issued by NWS Charleston, SC

Home | Current Version | Previous Version | Text Only | Print | Product List | Glossary On
Versions: 1 2 3 4 5 6 7 8 9 10 11 12 13 14 15 16 17 18 19 20 21 22 23 24 25 26 27 28 29 30 31 32 33 34 35 36 37 38 39 40 41 42 43 44 45 46 47 48 49 50
519
FPUS82 KCHS 221327
OPUCHS

TEST...KCHS/KSAV Gateway Observations...TEST
National Weather Service Charleston SC
900 AM EDT SAT JUL 22 2017

NOTE: "fair" indicates few or no clouds below 12,000 feet with no
significant weather and/or obstructions to visibility.

SCZ050-WAZ558-NCZ071-TXZ119-213-PAZ071-DCZ001-FLZ074-172-MI076-
NYZ176-178-MAZ016-IL014-TNZ027-NJZ106-GAZ044-MD014-221400-

...Gateway Observations for Charleston International...

CITY           SKY/WX    TMP DP  RH WIND       PRES   REMARKS
Chas Airport   SUNNY     82  74  76 W7        30.04R
Seattle        CLOUDY    64  52  64 S5        30.17R
Charlotte      MOSUNNY   81  72  74 SW3       30.03R
Dallas DFW     MOSUNNY   83  74  74 S8        29.93R
Dallas Love    MOSUNNY   83  72  69 S7        29.95R
Philladelphia  PTSUNNY   85  67  54 E9        29.90R
Wash National  CLOUDY    84  74  71 N6        29.92R HX  91
Baltimore      CLOUDY    84  73  69 N5        29.90R HX  90
Miami          PTSUNNY   85  77  77 E6        30.09R HX  95
Detroit        CLOUDY    74  69  85 SE9       29.82F
Newark         PTSUNNY   84  58  40 N9        29.89R
Laguardia      PTSUNNY   81  69  67 E10       29.89R
J F K          PTSUNNY   84  68  58 NE6       29.89R
Boston Logan   CLOUDY    76  59  55 NW9       29.88R
Ft. Lauderdale PTSUNNY   83  76  79 SE5       30.09R HX  91
Chicago O`Hare LGT RAIN  72  68  87 NE15      29.73F
Chicago Midway CLOUDY    73  67  81 S18G26    29.69F
Houston Bush   MOSUNNY   81  78  91 CALM      29.99R
Houston Hobby  MOSUNNY   83  77  82 CALM      29.98R HX  92
Nashville      SUNNY     83  74  74 S5        29.99R
Atlanta        MOSUNNY   77  73  87 SW5       30.06R

$$

GAZ044-118-TXZ119-213-NCZ071-DCZ001-MDZ014-506-PAZ021-071-NJZ106-
NYZ176-178-MAZ106-OHZ011-021-055-MIZ076-KYZ091-ILZ014-INZ047-
MNZ060-ONZ431-221400-

...Gateway Observations for Savannah International...

CITY           SKY/WX    TMP DP  RH WIND       PRES   REMARKS
Savannah Arpt  MOSUNNY   80  73  79 W6        30.07R
Atlanta        MOSUNNY   77  73  87 SW5       30.06R
Charlotte      MOSUNNY   81  72  74 SW3       30.03R
Dallas DFW     MOSUNNY   83  74  74 S8        29.93R
Houston Bush   MOSUNNY   81  78  91 CALM      29.99R
Wash National  CLOUDY    84  74  71 N6        29.92R HX  91
Wash Dulles    PTSUNNY   81  70  69 NW6       29.93R
Baltimore      CLOUDY    84  73  69 N5        29.90R HX  90
Philadelphia   PTSUNNY   85  67  54 E9        29.90R
Newark         PTSUNNY   84  58  40 N9        29.89R
Laguardia      PTSUNNY   81  69  67 E10       29.89R
J F K          PTSUNNY   84  68  58 NE6       29.89R
Boston         CLOUDY    76  59  55 NW9       29.88R
Pittsburg      CLOUDY    76  72  87 S6        29.93F FOG
Akron          RAIN      74  71  91 S13       29.87F FOG
Cleveland      LGT RAIN  77  73  87 W10       29.87F FOG
Cincinnati     PTSUNNY   79  77  94 S7        29.92F FOG
Columbus       CLOUDY    70  70 100 S6        29.90S
Detroit        CLOUDY    74  69  85 SE9       29.82F
Chicago O`Hare LGT RAIN  72  68  87 NE15      29.73F
Minneapolis    CLOUDY    72  66  81 N9        29.85R
Indianapolis   PTSUNNY   76  70  82 S7        29.89R
Toronto Canada CLOUDY    72  59  64 NE6       29.89S

$$




USA.gov is the U.S. government's official web portal to all federal, state and local government web resources and services.